{"data":{"norad_id":60360,"epoch":"2026-05-25T04:29:16.393920Z","epoch_age_seconds":55518,"freshness":"FRESH","line1":"1 60360U 24138F   26145.18699530  .00000825  00000+0  38349-4 0  9997","line2":"2 60360  53.1595 314.0014 0001254  95.1909 264.9236 15.31702508102347","mean_motion":15.31702508,"eccentricity":0.0001254,"inclination_deg":53.1595,"raan_deg":314.0014,"arg_perigee_deg":95.1909,"mean_anomaly_deg":264.9236,"bstar":3.8349e-5,"rev_number":10234,"period_min":94.01303402449,"perigee_km":469.87367078067,"apogee_km":471.59136725604,"semimajor_km":6848.8695190184,"source":"CELESTRAK","updated_at":"2026-05-25T13:38:19.238603Z"}}